(503481) = 2016 EU167

Discovered at Haleakala on 2012-02-04 by Pan-STARRS 1.

Orbit

Orbit type: Main Belt

Note: WebGL enabled browser required.

epoch2023-02-25.0
epoch JD2460000.5
perihelion date2020-06-14.47262
perihelion JD2459014.97262
argument of perihelion (°)226.39506
ascending node (°)8.72823
inclination (°)5.57663
eccentricity0.1261603
perihelion distance (AU)2.1226094
Tisserand w.r.t. Jupiter3.5
ΔV w.r.t. Earth (km/sec)9.2
semimajor axis (AU)2.4290603
mean anomaly (°)256.57545
mean daily motion (°/day)0.26034330
aphelion distance (AU)2.736
period (years)3.79
P-vector [x]-0.57233246
P-vector [y]-0.72158964
P-vector [z]-0.38954326
Q-vector [x]0.81988908
Q-vector [y]-0.49500796
Q-vector [z]-0.28766130
absolute magnitude17.72
phase slope0.15
uncertainty0
referenceMPEC 2023-B205
observations used200
oppositions10
arc length (days)5977
first opposition used2006
last opposition used2023
residual rms (arc-secs)0.67
perturbers coarse indicatorM-v
perturbers precise indicator003Ek
first observation date used2006-09-18.0
last observation date used2023-01-29.0
computer nameMPCLINUX
JD of orbit computation2458012.379310
perihelion JD uncertainty (days)7.4351E-05
argument of perihelion uncertainty (°)3.4311E-05
ascending node uncertainty (°)2.7637E-05
inclination uncertainty (°)4.2781E-06
eccentricity uncertainty 2.2828E-08
perihelion distance uncertainty (AU)5.2604E-08
Minimum Orbit Intersection Distances (in AU)
for orbit epoch: 2460000.5, reference: E2023-BK5
Mercury1.66183
Venus1.40276
Earth1.1163
Mars0.54991
Jupiter2.26558
Saturn6.38612
Uranus16.0912
Neptune27.1519

Observations

205 total observations over interval: 2006 09 18.41854 – 2023 01 29.258488
These data are available for download (format description).

Date (UT) J2000 RA J2000 Dec Magn Location Ref
2006 09 18.41854 01 56 46.65 +13 28 43.8 21.8 V 691 – Steward Observatory, Kitt Peak-Spacewatch MPS 696129
2006 09 18.43592 01 56 45.96 +13 28 43.2 22.0 V 691 – Steward Observatory, Kitt Peak-Spacewatch MPS 696129
2006 09 18.45331 01 56 45.37 +13 28 42.1 21.9 V 691 – Steward Observatory, Kitt Peak-Spacewatch MPS 696129
2008 01 18.24942 08 44 43.47 +26 40 38.7 21.3 V G96 – Mt. Lemmon Survey MPS 696129
2008 01 18.25496 08 44 43.11 +26 40 39.9 21.7 V G96 – Mt. Lemmon Survey MPS 696129
2008 01 18.26042 08 44 42.72 +26 40 41.1 21.5 V G96 – Mt. Lemmon Survey MPS 696129
2008 01 18.26595 08 44 42.39 +26 40 43.1 20.9 V G96 – Mt. Lemmon Survey MPS 696129
2012 02 04.51984 10 35 41.412 +15 33 57.27 20.7 i F51 – Pan-STARRS 1, Haleakala MPS 692977
2012 02 04.53217 10 35 40.780 +15 34 00.42 20.8 i F51 – Pan-STARRS 1, Haleakala MPS 692977
2012 02 04.59849 10 35 37.387 +15 34 16.14 20.7 r F51 – Pan-STARRS 1, Haleakala MPS 692977
2012 02 04.60936 10 35 36.860 +15 34 18.78 20.7 r F51 – Pan-STARRS 1, Haleakala MPS 692977
2012 02 16.51702 10 24 34.503 +16 23 25.18 20.6 w F51 – Pan-STARRS 1, Haleakala MPS 692977
2012 02 16.53169 10 24 33.602 +16 23 28.81 20.7 w F51 – Pan-STARRS 1, Haleakala MPS 692977
2012 02 16.54632 10 24 32.645 +16 23 31.93 20.7 w F51 – Pan-STARRS 1, Haleakala MPS 692977
2012 02 16.56101 10 24 31.718 +16 23 35.53 20.6 w F51 – Pan-STARRS 1, Haleakala MPS 692977
2012 02 24.30462 10 16 26.00 +16 52 42.1 20.7 V G96 – Mt. Lemmon Survey MPS 696129
2012 02 24.31496 10 16 25.35 +16 52 44.4 20.3 V G96 – Mt. Lemmon Survey MPS 696129
2012 02 24.32534 10 16 24.67 +16 52 46.5 20.5 V G96 – Mt. Lemmon Survey MPS 696129
2012 02 24.33575 10 16 23.95 +16 52 48.6 20.5 V G96 – Mt. Lemmon Survey MPS 696129
2012 03 27.21235 09 50 04.84 +17 26 27.8 22.0 V G96 – Mt. Lemmon Survey MPS 696129
2012 03 27.22046 09 50 04.63 +17 26 26.7 21.4 V G96 – Mt. Lemmon Survey MPS 696129
2012 03 27.22858 09 50 04.34 +17 26 25.6 21.0 V G96 – Mt. Lemmon Survey MPS 696129
2012 03 27.23663 09 50 04.16 +17 26 25.1 21.5 V G96 – Mt. Lemmon Survey MPS 696129
2013 07 14.49646 22 01 57.359 -20 19 47.26 21.1 w F51 – Pan-STARRS 1, Haleakala MPS 696129
2013 07 14.51251 22 01 56.797 -20 19 50.27 21.2 w F51 – Pan-STARRS 1, Haleakala MPS 696129
2013 07 14.52795 22 01 56.264 -20 19 53.54 21.0 w F51 – Pan-STARRS 1, Haleakala MPS 696129
2013 07 14.54432 22 01 55.701 -20 19 56.84 20.8 w F51 – Pan-STARRS 1, Haleakala MPS 696129
2013 08 04.45389 21 45 14.270 -21 36 55.14 20.6 w F51 – Pan-STARRS 1, Haleakala MPS 696129
2013 08 04.46779 21 45 13.397 -21 36 58.08 20.5 w F51 – Pan-STARRS 1, Haleakala MPS 696129
2013 08 04.48170 21 45 12.530 -21 37 01.00 20.5 w F51 – Pan-STARRS 1, Haleakala MPS 696129
2013 08 04.49557 21 45 11.661 -21 37 04.01 20.5 w F51 – Pan-STARRS 1, Haleakala MPS 696129
2013 08 29.35504 21 20 35.475 -22 29 24.85 20.7 w F51 – Pan-STARRS 1, Haleakala MPS 696129
2013 08 29.36888 21 20 34.730 -22 29 25.11 20.7 w F51 – Pan-STARRS 1, Haleakala MPS 696129
2013 08 29.38271 21 20 33.982 -22 29 25.54 20.8 w F51 – Pan-STARRS 1, Haleakala MPS 696129
2013 08 29.39651 21 20 33.240 -22 29 25.82 20.8 w F51 – Pan-STARRS 1, Haleakala MPS 696129
2014 11 22.28843 04 14 06.28 +28 29 33.3 21.0 V G96 – Mt. Lemmon Survey MPS 696129
2014 11 22.29451 04 14 05.87 +28 29 33.0 21.2 V G96 – Mt. Lemmon Survey MPS 696129
2014 11 22.30060 04 14 05.38 +28 29 32.4 20.8 V G96 – Mt. Lemmon Survey MPS 696129
2014 11 22.30669 04 14 05.04 +28 29 31.8 21.4 V G96 – Mt. Lemmon Survey MPS 696129
2014 12 20.39496 03 44 52.719 +27 19 36.75 21.7 w F51 – Pan-STARRS 1, Haleakala MPS 696129
2014 12 20.41920 03 44 51.517 +27 19 32.10 21.6 w F51 – Pan-STARRS 1, Haleakala MPS 696129
2014 12 20.43132 03 44 50.919 +27 19 29.61 21.8 w F51 – Pan-STARRS 1, Haleakala MPS 696129
2016 02 18.56115 12 36 09.006 -01 10 30.29 20.8 r F51 – Pan-STARRS 1, Haleakala MPS 692977
2016 02 18.57772 12 36 08.676 -01 10 30.61 21.0 r F51 – Pan-STARRS 1, Haleakala MPS 692977
2016 02 18.60964 12 36 08.015 -01 10 30.21 20.7 r F51 – Pan-STARRS 1, Haleakala MPS 692977
2016 03 11.46565 12 22 46.875 -00 39 13.00 20.4 w F51 – Pan-STARRS 1, Haleakala MPS 692977
2016 03 11.47877 12 22 46.142 -00 39 11.01 20.5 w F51 – Pan-STARRS 1, Haleakala MPS 692977
2016 03 11.49194 12 22 45.421 -00 39 08.91 20.3 w F51 – Pan-STARRS 1, Haleakala MPS 692977
2016 03 13.43176 12 21 01.402 -00 33 56.86 20.3 w F51 – Pan-STARRS 1, Haleakala MPS 692977
2016 03 13.44683 12 21 00.538 -00 33 54.31 20.3 w F51 – Pan-STARRS 1, Haleakala MPS 692977
2016 03 13.46188 12 20 59.679 -00 33 51.84 20.3 w F51 – Pan-STARRS 1, Haleakala MPS 692977
2016 03 13.47693 12 20 58.810 -00 33 49.42 20.3 w F51 – Pan-STARRS 1, Haleakala MPS 692977
2016 03 27.25690 12 07 31.57 +00 06 42.1   G96 – Mt. Lemmon Survey MPS 696129
2016 03 27.26297 12 07 31.18 +00 06 42.9 20.0 V G96 – Mt. Lemmon Survey MPS 696129
2016 03 27.26908 12 07 30.81 +00 06 44.2 19.7 V G96 – Mt. Lemmon Survey MPS 696129
2016 03 27.27516 12 07 30.44 +00 06 44.5 19.4 V G96 – Mt. Lemmon Survey MPS 696129
2016 03 31.19121 12 03 38.14 +00 17 50.9 19.9 r G45 – Space Surveillance Telescope, Atom Site MPS 696129
2016 03 31.19532 12 03 37.88 +00 17 52.0 20.4 r G45 – Space Surveillance Telescope, Atom Site MPS 696129
2016 03 31.20021 12 03 37.62 +00 17 52.9 20.3 r G45 – Space Surveillance Telescope, Atom Site MPS 696129
2016 03 31.20513 12 03 37.31 +00 17 53.6 20.2 r G45 – Space Surveillance Telescope, Atom Site MPS 696129
2016 03 31.21021 12 03 36.99 +00 17 54.9 19.7 r G45 – Space Surveillance Telescope, Atom Site MPS 696129
2016 03 31.21523 12 03 36.71 +00 17 55.0 19.8 r G45 – Space Surveillance Telescope, Atom Site MPS 696129
2016 04 01.36233 12 02 29.888 +00 21 01.88 20.2 w F51 – Pan-STARRS 1, Haleakala MPS 698911
2016 04 01.37464 12 02 29.139 +00 21 03.90 20.0 w F51 – Pan-STARRS 1, Haleakala MPS 698911
2016 04 01.38695 12 02 28.393 +00 21 05.82 20.2 w F51 – Pan-STARRS 1, Haleakala MPS 698911
2016 04 01.39928 12 02 27.653 +00 21 07.75 20.2 w F51 – Pan-STARRS 1, Haleakala MPS 698911
2016 04 03.38669 12 00 33.976 +00 26 15.33 20.2 w F51 – Pan-STARRS 1, Haleakala MPS 698911
2016 04 03.39847 12 00 33.277 +00 26 17.16 20.4 w F51 – Pan-STARRS 1, Haleakala MPS 698911
2016 04 03.41031 12 00 32.577 +00 26 18.93 20.3 w F51 – Pan-STARRS 1, Haleakala MPS 698911
2016 05 09.14391 11 42 12.51 +00 30 37.1 21.1 V G96 – Mt. Lemmon Survey MPS 708372
2016 05 09.14894 11 42 12.50 +00 30 36.6 21.1 V G96 – Mt. Lemmon Survey MPS 708372
2016 05 09.15397 11 42 12.50 +00 30 35.6 21.1 V G96 – Mt. Lemmon Survey MPS 708372
2016 05 09.15899 11 42 12.49 +00 30 34.8 20.9 V G96 – Mt. Lemmon Survey MPS 708372
2017 07 30.49786 23 45 11.401 -06 28 05.64 21.6 w F51 – Pan-STARRS 1, Haleakala MPS 808014
2017 07 30.50987 23 45 11.197 -06 28 06.43 21.5 w F51 – Pan-STARRS 1, Haleakala MPS 808014
2017 07 30.52181 23 45 10.999 -06 28 07.27 21.5 w F51 – Pan-STARRS 1, Haleakala MPS 808014
2017 07 30.53372 23 45 10.798 -06 28 07.97 21.5 w F51 – Pan-STARRS 1, Haleakala MPS 808014
2017 08 01.53068 23 44 37.904 -06 30 35.62 21.3 w F51 – Pan-STARRS 1, Haleakala MPS 808014
2017 08 01.53522 23 44 37.811 -06 30 36.02 21.5 w F51 – Pan-STARRS 1, Haleakala MPS 808014
2017 08 01.54256 23 44 37.649 -06 30 36.69 21.4 w F51 – Pan-STARRS 1, Haleakala MPS 808014
2017 08 01.54708 23 44 37.571 -06 30 37.02 21.2 w F51 – Pan-STARRS 1, Haleakala MPS 808014
2017 08 01.55445 23 44 37.420 -06 30 37.66 21.4 w F51 – Pan-STARRS 1, Haleakala MPS 808014
2017 08 01.55898 23 44 37.326 -06 30 38.11 21.4 w F51 – Pan-STARRS 1, Haleakala MPS 808014
2017 08 01.56637 23 44 37.167 -06 30 38.63 21.4 w F51 – Pan-STARRS 1, Haleakala MPS 808014
2017 08 01.57089 23 44 37.083 -06 30 38.83 21.3 w F51 – Pan-STARRS 1, Haleakala MPS 808014
2017 08 03.53222 23 43 58.235 -06 33 36.99 21.5 w F51 – Pan-STARRS 1, Haleakala MPS 808014
2017 08 03.54299 23 43 57.983 -06 33 38.33 21.2 w F51 – Pan-STARRS 1, Haleakala MPS 808014
2017 08 03.55377 23 43 57.730 -06 33 39.40 21.5 w F51 – Pan-STARRS 1, Haleakala MPS 808014
2017 08 03.56452 23 43 57.463 -06 33 40.44 21.3 w F51 – Pan-STARRS 1, Haleakala MPS 808014
2017 08 17.47679 23 36 24.774 -07 08 36.39 21.0 w F51 – Pan-STARRS 1, Haleakala MPS 810402
